N121LL KBNA-KOPF

Flight info

Callsign N121LL
Flight time 1h 48m
Altitude 41000
Route TIPPN4 DENST LGC PZD PIE SABEE CUURT1
Aircraft CL60/M-SBDE1E2E3FGHIJ1J4J5J7M3RWXYZ/LB1V1D1

Departure

Time 2026-04-23 01:36
Airport Nashville International Airport (KBNA)

Arrival

Time 2026-04-23 03:25
Airport Miami-Opa Locka Executive Airport (KOPF)
Time Latitude Longitude Altitude Speed Heading
2026-04-23 00:30 36.12027 -86.67078 607 ft 0 kts 220°
2026-04-23 01:25 36.12020 -86.67088 607 ft 7 kts 232°
2026-04-23 01:25 36.12048 -86.67162 607 ft 7 kts 329°
2026-04-23 01:26 36.12062 -86.67172 607 ft 10 kts 330°
2026-04-23 01:26 36.12128 -86.67221 607 ft 4 kts 318°
2026-04-23 01:26 36.12210 -86.67326 607 ft 24 kts 310°
2026-04-23 01:26 36.12293 -86.67435 607 ft 12 kts 314°
2026-04-23 01:27 36.12334 -86.67516 607 ft 7 kts 254°
2026-04-23 01:27 36.12288 -86.67592 607 ft 12 kts 250°
2026-04-23 01:27 36.12316 -86.67674 607 ft 12 kts 312°
2026-04-23 01:27 36.12330 -86.67693 607 ft 0 kts 310°
2026-04-23 01:28 36.12340 -86.67708 607 ft 8 kts 310°
2026-04-23 01:28 36.12362 -86.67780 607 ft 3 kts 287°
2026-04-23 01:28 36.12381 -86.67851 608 ft 1 kts 287°
2026-04-23 01:28 36.12381 -86.67853 608 ft 0 kts 287°
2026-04-23 01:35 36.12398 -86.67921 607 ft 19 kts 287°
2026-04-23 01:35 36.12345 -86.67990 607 ft 19 kts 197°
2026-04-23 01:36 36.11852 -86.68186 608 ft 129 kts 198°
2026-04-23 01:36 36.10748 -86.68617 885 ft 189 kts 198°
2026-04-23 01:36 36.09467 -86.69123 1799 ft 204 kts 197°
2026-04-23 01:36 36.08095 -86.69612 2746 ft 208 kts 199°
2026-04-23 01:37 36.06733 -86.70128 3639 ft 206 kts 199°
2026-04-23 01:37 36.05366 -86.70647 4509 ft 207 kts 199°
2026-04-23 01:37 36.04002 -86.71165 5303 ft 212 kts 199°
2026-04-23 01:37 36.02618 -86.71689 6172 ft 208 kts 200°
2026-04-23 01:38 36.01241 -86.72211 7029 ft 214 kts 199°
2026-04-23 01:38 35.99810 -86.72753 7935 ft 217 kts 199°
2026-04-23 01:38 35.98370 -86.73299 8858 ft 227 kts 199°
2026-04-23 01:38 35.96797 -86.73898 9759 ft 252 kts 199°
2026-04-23 01:39 35.94973 -86.74294 10411 ft 283 kts 179°
2026-04-23 01:39 35.93060 -86.73599 11071 ft 297 kts 150°
2026-04-23 01:39 35.91305 -86.72166 11717 ft 301 kts 146°
2026-04-23 01:39 35.89565 -86.70709 12371 ft 302 kts 145°
2026-04-23 01:40 35.87825 -86.69263 13025 ft 304 kts 144°
2026-04-23 01:40 35.86037 -86.67780 13690 ft 308 kts 144°
2026-04-23 01:40 35.84264 -86.66310 14339 ft 312 kts 144°
2026-04-23 01:40 35.82436 -86.64797 15005 ft 316 kts 145°
2026-04-23 01:41 35.80611 -86.63290 15654 ft 320 kts 145°
2026-04-23 01:41 35.78747 -86.61753 16309 ft 325 kts 145°
2026-04-23 01:41 35.76863 -86.60201 16963 ft 329 kts 145°
2026-04-23 01:41 35.74942 -86.58620 17657 ft 334 kts 145°
2026-04-23 01:42 35.73006 -86.57029 18272 ft 339 kts 145°
2026-04-23 01:42 35.71057 -86.55428 18912 ft 342 kts 145°
2026-04-23 01:42 35.69046 -86.53779 19569 ft 346 kts 146°
2026-04-23 01:42 35.67063 -86.52153 20215 ft 350 kts 145°
2026-04-23 01:43 35.65022 -86.50482 20876 ft 354 kts 146°
2026-04-23 01:43 35.62964 -86.48798 21528 ft 359 kts 146°
2026-04-23 01:43 35.60867 -86.47084 22182 ft 363 kts 146°
2026-04-23 01:43 35.58630 -86.45619 22843 ft 367 kts 161°
2026-04-23 01:44 35.56193 -86.44788 23499 ft 373 kts 166°
2026-04-23 01:44 35.53634 -86.43984 24164 ft 379 kts 166°
2026-04-23 01:44 35.51104 -86.43182 24816 ft 382 kts 165°
2026-04-23 01:44 35.48502 -86.42358 25477 ft 386 kts 165°
2026-04-23 01:45 35.45903 -86.41534 26135 ft 389 kts 165°
2026-04-23 01:45 35.43273 -86.40702 26794 ft 392 kts 165°
2026-04-23 01:45 35.40645 -86.39861 27446 ft 396 kts 163°
2026-04-23 01:45 35.38107 -86.38519 28118 ft 399 kts 146°
2026-04-23 01:46 35.35942 -86.36411 28768 ft 402 kts 136°
2026-04-23 01:46 35.33834 -86.34108 29427 ft 405 kts 137°
2026-04-23 01:46 35.31710 -86.31804 30072 ft 408 kts 137°
2026-04-23 01:46 35.29546 -86.29459 30736 ft 409 kts 137°
2026-04-23 01:47 35.27408 -86.27143 31392 ft 410 kts 136°
2026-04-23 01:47 35.25280 -86.24841 32045 ft 410 kts 136°
2026-04-23 01:47 35.23143 -86.22532 32704 ft 408 kts 136°
2026-04-23 01:47 35.21013 -86.20232 33360 ft 406 kts 136°
2026-04-23 01:48 35.18903 -86.17955 34061 ft 404 kts 135°
2026-04-23 01:48 35.16794 -86.15682 34726 ft 403 kts 136°
2026-04-23 01:48 35.14698 -86.13424 35382 ft 401 kts 136°
2026-04-23 01:48 35.12606 -86.11172 36047 ft 398 kts 136°
2026-04-23 01:49 35.10525 -86.08933 36714 ft 396 kts 136°
2026-04-23 01:49 35.08485 -86.06741 37363 ft 392 kts 136°
2026-04-23 01:49 35.06441 -86.04546 38023 ft 388 kts 136°
2026-04-23 01:49 35.04443 -86.02402 38667 ft 383 kts 136°
2026-04-23 01:50 35.02441 -86.00255 39326 ft 377 kts 135°
2026-04-23 01:50 35.00516 -85.98193 39941 ft 370 kts 135°
2026-04-23 01:50 34.98586 -85.96126 40575 ft 360 kts 136°
2026-04-23 01:50 34.96731 -85.94142 41081 ft 353 kts 136°
2026-04-23 01:51 34.92984 -85.90129 41168 ft 364 kts 136°
2026-04-23 01:51 34.89098 -85.85975 41164 ft 378 kts 136°
2026-04-23 01:52 34.85026 -85.81628 41165 ft 390 kts 136°
2026-04-23 01:52 34.80854 -85.77185 41157 ft 402 kts 137°
2026-04-23 01:53 34.76137 -85.73380 41161 ft 415 kts 155°
2026-04-23 01:53 34.70573 -85.71209 41149 ft 425 kts 166°
2026-04-23 01:54 34.64749 -85.69398 41152 ft 435 kts 166°
2026-04-23 01:54 34.58791 -85.67545 41157 ft 445 kts 166°
2026-04-23 01:55 34.52718 -85.65659 41160 ft 453 kts 166°
2026-04-23 01:55 34.46571 -85.63753 41157 ft 461 kts 166°
2026-04-23 01:56 34.40285 -85.61807 41152 ft 467 kts 166°
2026-04-23 01:56 34.33957 -85.59849 41151 ft 468 kts 166°
2026-04-23 01:57 34.27618 -85.57893 41146 ft 467 kts 166°
2026-04-23 01:57 34.21317 -85.55952 41137 ft 467 kts 166°
2026-04-23 01:58 34.15014 -85.54012 41127 ft 467 kts 166°
2026-04-23 01:58 34.08731 -85.52082 41127 ft 467 kts 166°
2026-04-23 01:59 34.02388 -85.50136 41121 ft 467 kts 166°
2026-04-23 01:59 33.96085 -85.48206 41137 ft 467 kts 166°
2026-04-23 02:00 33.89759 -85.46271 41145 ft 467 kts 166°
2026-04-23 02:00 33.83389 -85.44326 41147 ft 467 kts 166°
2026-04-23 02:01 33.77096 -85.42407 41141 ft 466 kts 166°
2026-04-23 02:01 33.70767 -85.40481 41148 ft 467 kts 166°
2026-04-23 02:02 33.64464 -85.38565 41170 ft 467 kts 166°
2026-04-23 02:02 33.58135 -85.36645 41166 ft 467 kts 166°
2026-04-23 02:03 33.51819 -85.34731 41157 ft 467 kts 167°
2026-04-23 02:03 33.45501 -85.32819 41156 ft 467 kts 167°
2026-04-23 02:04 33.39145 -85.30899 41162 ft 467 kts 167°
2026-04-23 02:04 33.32850 -85.29000 41167 ft 466 kts 167°
2026-04-23 02:05 33.26541 -85.27100 41157 ft 466 kts 167°
2026-04-23 02:05 33.20220 -85.25198 41152 ft 467 kts 167°
2026-04-23 02:06 33.13916 -85.23305 41170 ft 466 kts 167°
2026-04-23 02:06 33.07605 -85.21401 41163 ft 467 kts 165°
2026-04-23 02:07 33.01581 -85.18410 41152 ft 467 kts 151°
2026-04-23 02:07 32.95924 -85.14632 41163 ft 467 kts 151°
2026-04-23 02:08 32.90231 -85.10844 41157 ft 468 kts 150°
2026-04-23 02:08 32.84497 -85.07035 41156 ft 468 kts 151°
2026-04-23 02:09 32.78791 -85.03251 41166 ft 468 kts 151°
2026-04-23 02:09 32.73082 -84.99470 41169 ft 468 kts 151°
2026-04-23 02:10 32.67404 -84.95717 41171 ft 467 kts 151°
2026-04-23 02:10 32.61696 -84.91949 41161 ft 468 kts 151°
2026-04-23 02:11 32.55981 -84.88181 41157 ft 468 kts 151°
2026-04-23 02:11 32.50296 -84.84440 41162 ft 467 kts 151°
2026-04-23 02:12 32.44570 -84.80677 41154 ft 466 kts 151°
2026-04-23 02:12 32.38908 -84.76962 41156 ft 466 kts 151°
2026-04-23 02:13 32.33226 -84.73239 41148 ft 466 kts 151°
2026-04-23 02:13 32.27539 -84.69519 41158 ft 466 kts 151°
2026-04-23 02:14 32.21811 -84.65777 41161 ft 467 kts 151°
2026-04-23 02:14 32.16131 -84.62071 41161 ft 466 kts 151°
2026-04-23 02:15 32.07600 -84.56516 41164 ft 466 kts 151°
2026-04-23 02:16 32.01915 -84.52821 41156 ft 466 kts 151°
2026-04-23 02:16 31.96232 -84.49133 41170 ft 466 kts 152°
2026-04-23 02:17 31.90532 -84.45438 41165 ft 466 kts 152°
2026-04-23 02:17 31.84810 -84.41736 41163 ft 466 kts 152°
2026-04-23 02:18 31.79117 -84.38057 41165 ft 466 kts 152°
2026-04-23 02:18 31.73382 -84.34356 41164 ft 466 kts 152°
2026-04-23 02:19 31.67660 -84.30669 41161 ft 466 kts 152°
2026-04-23 02:19 31.61776 -84.27571 41163 ft 465 kts 161°
2026-04-23 02:20 31.55707 -84.24877 41167 ft 464 kts 161°
2026-04-23 02:20 31.49660 -84.22189 41169 ft 464 kts 161°
2026-04-23 02:21 31.43605 -84.19499 41166 ft 464 kts 161°
2026-04-23 02:21 31.37552 -84.16813 41168 ft 464 kts 161°
2026-04-23 02:22 31.31483 -84.14122 41168 ft 464 kts 161°
2026-04-23 02:22 31.25449 -84.11449 41163 ft 464 kts 161°
2026-04-23 02:23 31.19397 -84.08772 41165 ft 464 kts 161°
2026-04-23 02:23 31.13344 -84.06097 41166 ft 463 kts 161°
2026-04-23 02:24 31.07291 -84.03426 41167 ft 463 kts 161°
2026-04-23 02:24 31.01275 -84.00774 41171 ft 464 kts 161°
2026-04-23 02:25 30.95220 -83.98109 41168 ft 464 kts 161°
2026-04-23 02:25 30.89183 -83.95454 41168 ft 463 kts 161°
2026-04-23 02:26 30.83087 -83.92778 41175 ft 463 kts 161°
2026-04-23 02:26 30.77044 -83.90129 41156 ft 463 kts 161°
2026-04-23 02:27 30.71006 -83.87485 41173 ft 462 kts 161°
2026-04-23 02:27 30.64976 -83.84849 41157 ft 464 kts 161°
2026-04-23 02:28 30.58934 -83.82210 41161 ft 464 kts 162°
2026-04-23 02:28 30.52884 -83.79572 41167 ft 463 kts 162°
2026-04-23 02:29 30.46838 -83.76939 41163 ft 463 kts 162°
2026-04-23 02:29 30.40783 -83.74305 41163 ft 462 kts 162°
2026-04-23 02:30 30.34768 -83.71693 41160 ft 463 kts 162°
2026-04-23 02:30 30.28723 -83.69070 41173 ft 462 kts 162°
2026-04-23 02:31 30.22641 -83.66436 41168 ft 463 kts 162°
2026-04-23 02:31 30.16611 -83.63827 41170 ft 462 kts 162°
2026-04-23 02:32 30.10584 -83.61223 41165 ft 463 kts 162°
2026-04-23 02:32 30.04551 -83.58620 41172 ft 463 kts 162°
2026-04-23 02:33 29.98479 -83.56003 41174 ft 463 kts 162°
2026-04-23 02:33 29.92456 -83.53410 41164 ft 463 kts 162°
2026-04-23 02:34 29.86378 -83.50797 41169 ft 462 kts 162°
2026-04-23 02:34 29.80366 -83.48217 41164 ft 462 kts 162°
2026-04-23 02:35 29.74321 -83.45624 41163 ft 462 kts 162°
2026-04-23 02:35 29.68268 -83.43033 41164 ft 462 kts 163°
2026-04-23 02:36 29.62234 -83.40452 41160 ft 462 kts 163°
2026-04-23 02:36 29.56193 -83.37872 41166 ft 462 kts 163°
2026-04-23 02:37 29.50175 -83.35305 41170 ft 462 kts 163°
2026-04-23 02:37 29.44081 -83.32709 41167 ft 461 kts 164°
2026-04-23 02:38 29.38047 -83.30141 41171 ft 461 kts 164°
2026-04-23 02:38 29.31977 -83.27562 41171 ft 461 kts 164°
2026-04-23 02:39 29.25934 -83.24997 41170 ft 461 kts 164°
2026-04-23 02:39 29.19899 -83.22439 41172 ft 460 kts 164°
2026-04-23 02:40 29.13905 -83.19900 41173 ft 459 kts 164°
2026-04-23 02:40 29.07875 -83.17351 41170 ft 459 kts 164°
2026-04-23 02:41 29.01868 -83.14814 41173 ft 459 kts 165°
2026-04-23 02:41 28.95881 -83.12289 41168 ft 459 kts 165°
2026-04-23 02:42 28.89862 -83.09754 41151 ft 459 kts 165°
2026-04-23 02:42 28.83846 -83.07223 41145 ft 459 kts 165°
2026-04-23 02:43 28.77849 -83.04703 41149 ft 458 kts 165°
2026-04-23 02:43 28.71820 -83.02173 41149 ft 459 kts 165°
2026-04-23 02:44 28.65800 -82.99650 41147 ft 459 kts 165°
2026-04-23 02:44 28.59817 -82.97144 41145 ft 459 kts 165°
2026-04-23 02:45 28.53800 -82.94628 41142 ft 458 kts 165°
2026-04-23 02:45 28.47826 -82.92133 41144 ft 457 kts 165°
2026-04-23 02:46 28.41824 -82.89629 41142 ft 458 kts 165°
2026-04-23 02:46 28.35830 -82.87132 41151 ft 458 kts 166°
2026-04-23 02:47 28.29847 -82.84643 41154 ft 458 kts 166°
2026-04-23 02:47 28.23835 -82.82143 41159 ft 458 kts 166°
2026-04-23 02:48 28.17853 -82.79660 41161 ft 457 kts 166°
2026-04-23 02:48 28.11877 -82.77182 41165 ft 457 kts 166°
2026-04-23 02:49 28.05893 -82.74704 41160 ft 457 kts 166°
2026-04-23 02:49 27.99880 -82.72217 41172 ft 458 kts 166°
2026-04-23 02:50 27.93857 -82.69729 41157 ft 459 kts 166°
2026-04-23 02:50 27.87983 -82.66811 41158 ft 466 kts 157°
2026-04-23 02:51 27.82228 -82.63311 40881 ft 470 kts 158°
2026-04-23 02:51 27.79331 -82.61556 40304 ft 471 kts 158°
2026-04-23 02:51 27.76463 -82.59817 39685 ft 468 kts 158°
2026-04-23 02:51 27.73602 -82.58084 39085 ft 465 kts 158°
2026-04-23 02:52 27.70775 -82.56374 38498 ft 464 kts 158°
2026-04-23 02:52 27.67893 -82.54633 37908 ft 465 kts 158°
2026-04-23 02:52 27.65048 -82.52917 37300 ft 466 kts 158°
2026-04-23 02:52 27.62150 -82.51170 36683 ft 473 kts 158°
2026-04-23 02:53 27.59210 -82.49402 36041 ft 479 kts 158°
2026-04-23 02:53 27.56251 -82.47621 35402 ft 483 kts 158°
2026-04-23 02:53 27.53303 -82.45847 34766 ft 486 kts 158°
2026-04-23 02:53 27.50295 -82.44037 34112 ft 489 kts 158°
2026-04-23 02:54 27.47279 -82.42225 33469 ft 491 kts 158°
2026-04-23 02:54 27.44426 -82.40509 32855 ft 490 kts 158°
2026-04-23 02:54 27.41414 -82.38699 32198 ft 486 kts 157°
2026-04-23 02:54 27.38455 -82.36921 31551 ft 480 kts 157°
2026-04-23 02:55 27.35494 -82.35143 30913 ft 474 kts 157°
2026-04-23 02:55 27.32618 -82.33418 30293 ft 468 kts 157°
2026-04-23 02:55 27.29742 -82.31694 29665 ft 464 kts 156°
2026-04-23 02:55 27.26894 -82.29988 29045 ft 458 kts 156°
2026-04-23 02:56 27.24096 -82.28314 28441 ft 454 kts 156°
2026-04-23 02:56 27.21318 -82.26653 27842 ft 449 kts 156°
2026-04-23 02:56 27.18591 -82.25023 27251 ft 445 kts 156°
2026-04-23 02:56 27.15874 -82.23400 26662 ft 441 kts 156°
2026-04-23 02:57 27.13140 -82.21769 26070 ft 438 kts 156°
2026-04-23 02:57 27.10461 -82.20174 25495 ft 434 kts 157°
2026-04-23 02:57 27.07721 -82.18956 24935 ft 420 kts 172°
2026-04-23 02:57 27.04878 -82.18340 24904 ft 409 kts 175°
2026-04-23 02:58 27.02077 -82.17756 25001 ft 414 kts 174°
2026-04-23 02:58 26.99175 -82.17149 24899 ft 420 kts 174°
2026-04-23 02:58 26.96291 -82.16544 24840 ft 420 kts 175°
2026-04-23 02:58 26.93445 -82.15945 24771 ft 418 kts 175°
2026-04-23 02:59 26.90567 -82.15341 24695 ft 418 kts 175°
2026-04-23 02:59 26.87683 -82.14735 24628 ft 417 kts 174°
2026-04-23 02:59 26.84816 -82.14135 24554 ft 417 kts 175°
2026-04-23 02:59 26.81940 -82.13532 24485 ft 417 kts 175°
2026-04-23 03:00 26.79091 -82.12933 24410 ft 416 kts 175°
2026-04-23 03:00 26.76247 -82.12188 24338 ft 421 kts 167°
2026-04-23 03:00 26.73557 -82.10767 24263 ft 430 kts 152°
2026-04-23 03:00 26.71239 -82.08614 24184 ft 437 kts 136°
2026-04-23 03:01 26.69422 -82.05909 24084 ft 440 kts 126°
2026-04-23 03:01 26.67720 -82.03067 24027 ft 439 kts 127°
2026-04-23 03:01 26.66008 -82.00226 23952 ft 438 kts 126°
2026-04-23 03:01 26.64294 -81.97385 23884 ft 438 kts 126°
2026-04-23 03:02 26.62594 -81.94568 23808 ft 438 kts 126°
2026-04-23 03:02 26.60887 -81.91741 23734 ft 438 kts 126°
2026-04-23 03:02 26.59183 -81.88923 23667 ft 437 kts 126°
2026-04-23 03:02 26.57462 -81.86076 23590 ft 437 kts 126°
2026-04-23 03:03 26.55751 -81.83248 23520 ft 436 kts 127°
2026-04-23 03:03 26.54057 -81.80451 23449 ft 436 kts 126°
2026-04-23 03:03 26.52359 -81.77649 23367 ft 435 kts 126°
2026-04-23 03:03 26.50653 -81.74834 23300 ft 435 kts 126°
2026-04-23 03:04 26.48955 -81.72034 23221 ft 434 kts 126°
2026-04-23 03:04 26.47212 -81.69226 23100 ft 434 kts 128°
2026-04-23 03:04 26.45426 -81.66518 22833 ft 433 kts 128°
2026-04-23 03:04 26.43652 -81.63836 22560 ft 430 kts 129°
2026-04-23 03:05 26.41885 -81.61166 22265 ft 427 kts 128°
2026-04-23 03:05 26.40099 -81.58472 21607 ft 428 kts 128°
2026-04-23 03:05 26.38333 -81.55809 21007 ft 421 kts 129°
2026-04-23 03:05 26.36606 -81.53204 20527 ft 411 kts 128°
2026-04-23 03:06 26.34943 -81.50696 20840 ft 398 kts 128°
2026-04-23 03:06 26.33234 -81.48127 20737 ft 417 kts 128°
2026-04-23 03:06 26.31505 -81.45529 20173 ft 420 kts 128°
2026-04-23 03:06 26.29781 -81.42935 19572 ft 414 kts 128°
2026-04-23 03:07 26.28072 -81.40366 18967 ft 407 kts 128°
2026-04-23 03:07 26.26533 -81.37756 18379 ft 402 kts 115°
2026-04-23 03:07 26.25876 -81.34777 17811 ft 394 kts 91°
2026-04-23 03:07 26.26344 -81.31825 17220 ft 383 kts 65°
2026-04-23 03:08 26.27823 -81.29437 16623 ft 369 kts 39°
2026-04-23 03:08 26.29854 -81.27766 15997 ft 362 kts 33°
2026-04-23 03:08 26.31575 -81.25758 15418 ft 365 kts 56°
2026-04-23 03:08 26.32512 -81.23127 14812 ft 366 kts 76°
2026-04-23 03:09 26.32632 -81.20307 14214 ft 365 kts 96°
2026-04-23 03:09 26.31922 -81.17611 13616 ft 362 kts 116°
2026-04-23 03:09 26.30481 -81.15348 13020 ft 358 kts 136°
2026-04-23 03:09 26.28493 -81.13739 12426 ft 352 kts 154°
2026-04-23 03:10 26.26285 -81.12610 11815 ft 349 kts 158°
2026-04-23 03:10 26.24072 -81.11509 11208 ft 345 kts 157°
2026-04-23 03:10 26.21884 -81.10416 10619 ft 342 kts 156°
2026-04-23 03:10 26.19723 -81.09337 10032 ft 338 kts 156°
2026-04-23 03:11 26.17591 -81.08273 9455 ft 334 kts 156°
2026-04-23 03:11 26.15483 -81.07221 8983 ft 327 kts 156°
2026-04-23 03:11 26.13405 -81.06185 8535 ft 326 kts 156°
2026-04-23 03:11 26.11334 -81.05152 8101 ft 323 kts 155°
2026-04-23 03:12 26.09302 -81.04140 7675 ft 320 kts 155°
2026-04-23 03:12 26.07269 -81.03127 7252 ft 315 kts 155°
2026-04-23 03:12 26.05285 -81.02140 6838 ft 305 kts 155°
2026-04-23 03:12 26.03370 -81.01185 6442 ft 296 kts 153°
2026-04-23 03:13 26.01699 -80.99985 6086 ft 283 kts 134°
2026-04-23 03:13 26.00565 -80.98291 5993 ft 264 kts 115°
2026-04-23 03:13 25.99854 -80.96405 5988 ft 265 kts 109°
2026-04-23 03:13 25.99190 -80.94481 5984 ft 265 kts 109°
2026-04-23 03:14 25.98526 -80.92571 5985 ft 265 kts 110°
2026-04-23 03:14 25.97861 -80.90657 5985 ft 265 kts 109°
2026-04-23 03:14 25.97214 -80.88802 5994 ft 247 kts 109°
2026-04-23 03:14 25.96608 -80.87065 6002 ft 237 kts 109°
2026-04-23 03:15 25.96012 -80.85352 5990 ft 238 kts 109°
2026-04-23 03:15 25.95411 -80.83627 5986 ft 237 kts 109°
2026-04-23 03:15 25.94822 -80.81937 5984 ft 238 kts 109°
2026-04-23 03:15 25.94216 -80.80199 5982 ft 238 kts 110°
2026-04-23 03:16 25.93690 -80.78476 5982 ft 237 kts 98°
2026-04-23 03:16 25.93793 -80.76656 5983 ft 235 kts 71°
2026-04-23 03:16 25.95228 -80.73379 5982 ft 236 kts 63°
2026-04-23 03:17 25.95971 -80.71744 5981 ft 235 kts 63°
2026-04-23 03:17 25.96707 -80.70124 5982 ft 235 kts 63°
2026-04-23 03:17 25.97438 -80.68514 5984 ft 234 kts 63°
2026-04-23 03:17 25.98172 -80.66895 5986 ft 235 kts 63°
2026-04-23 03:18 25.98921 -80.65243 5751 ft 240 kts 64°
2026-04-23 03:18 25.99663 -80.63577 5294 ft 242 kts 67°
2026-04-23 03:18 25.99979 -80.61756 4816 ft 243 kts 89°
2026-04-23 03:18 25.99952 -80.59851 4326 ft 244 kts 90°
2026-04-23 03:19 25.99931 -80.57976 3850 ft 244 kts 90°
2026-04-23 03:19 25.99910 -80.56101 3375 ft 244 kts 90°
2026-04-23 03:19 25.99888 -80.54202 2886 ft 243 kts 90°
2026-04-23 03:19 25.99867 -80.52341 2418 ft 242 kts 90°
2026-04-23 03:20 25.99846 -80.50494 2160 ft 232 kts 90°
2026-04-23 03:20 25.99825 -80.48734 2029 ft 218 kts 90°
2026-04-23 03:20 25.99806 -80.47080 1893 ft 213 kts 90°
2026-04-23 03:20 25.99785 -80.45423 1763 ft 213 kts 91°
2026-04-23 03:21 25.99462 -80.43835 1680 ft 214 kts 115°
2026-04-23 03:21 25.98669 -80.42409 1682 ft 216 kts 120°
2026-04-23 03:21 25.97856 -80.41004 1684 ft 216 kts 119°
2026-04-23 03:21 25.97059 -80.39582 1685 ft 216 kts 118°
2026-04-23 03:22 25.96289 -80.38208 1664 ft 199 kts 118°
2026-04-23 03:22 25.95603 -80.36993 1647 ft 172 kts 118°
2026-04-23 03:22 25.94968 -80.35857 1445 ft 169 kts 118°
2026-04-23 03:22 25.94353 -80.34752 1266 ft 168 kts 119°
2026-04-23 03:23 25.93739 -80.33652 1046 ft 166 kts 118°
2026-04-23 03:23 25.93173 -80.32651 884 ft 142 kts 119°
2026-04-23 03:23 25.92654 -80.31730 670 ft 135 kts 119°
2026-04-23 03:23 25.92161 -80.30846 494 ft 132 kts 119°
2026-04-23 03:24 25.91681 -80.29985 321 ft 129 kts 120°
2026-04-23 03:24 25.91223 -80.29168 184 ft 121 kts 119°
2026-04-23 03:24 25.90788 -80.28380 42 ft 109 kts 118°
2026-04-23 03:24 25.90436 -80.27741 11 ft 79 kts 122°
2026-04-23 03:25 25.90237 -80.27396 11 ft 28 kts 124°
2026-04-23 03:25 25.90169 -80.27252 11 ft 19 kts 120°
2026-04-23 03:25 25.90167 -80.27151 12 ft 10 kts 51°
2026-04-23 03:25 25.90196 -80.27148 12 ft 0 kts 345°
2026-04-23 03:26 25.90210 -80.27153 12 ft 4 kts 337°
2026-04-23 03:26 25.90244 -80.27192 12 ft 9 kts 301°
2026-04-23 03:26 25.90289 -80.27274 11 ft 14 kts 301°
2026-04-23 03:26 25.90353 -80.27388 11 ft 19 kts 303°
2026-04-23 03:27 25.90436 -80.27527 11 ft 21 kts 300°
2026-04-23 03:27 25.90509 -80.27666 11 ft 18 kts 300°
2026-04-23 03:27 25.90573 -80.27770 11 ft 9 kts 316°
2026-04-23 03:27 25.90644 -80.27750 11 ft 13 kts 40°
2026-04-23 03:28 25.90726 -80.27671 11 ft 17 kts 43°
2026-04-23 03:28 25.90825 -80.27567 11 ft 21 kts 41°
2026-04-23 03:28 25.90872 -80.27521 11 ft 4 kts 43°
2026-04-23 03:28 25.90909 -80.27482 11 ft 9 kts 44°
2026-04-23 03:29 25.90968 -80.27418 11 ft 14 kts 45°
2026-04-23 03:29 25.90995 -80.27394 11 ft 0 kts 31°